Weather History for Coffeyville, KS

Change the Weather History Date:

Monday, November 5, 2012

  Actual Average Record
Temperature  
Mean Temperature 51 °F -  
Max Temperature 54 °F 58 °F 79 °F (2005)
Min Temperature 46 °F 39 °F 28 °F (2010)
Degree Days  
Heating Degree Days 14    
Growing Degree Days 1 (Base 50)    
Moisture  
Dew Point 40 °F    
Average Humidity 67    
Maximum Humidity 77    
Minimum Humidity 57    
Precipitation  
Precipitation 0.00 in - - ()
Sea Level Pressure  
Sea Level Pressure 30.08 in    
Wind  
Wind Speed 11 mph (NNW)    
Max Wind Speed 21 mph    
Max Gust Speed 28 mph    
Visibility 10 miles    
Events Rain    
Averages and records for this station are not official NWS values.
T = Trace of Precipitation, MM = Missing Value Source: NWS Daily Summary

Daily Weather History Graph

Daily Weather History Graph

Search for Another Location

Airport:

Trip Planner

Search our weather history database for the weather conditions in past years. The results will help you decide how hot, cold, wet, or windy it might be!

Date:

Astronomy

Nov. 05, 2012 Rise Set
Actual Time 6:51 AM CST 5:20 PM CST
Civil Twilight 6:23 AM CST 5:47 PM CST
Nautical Twilight 5:53 AM CST 6:18 PM CST
Astronomical Twilight 5:22 AM CST 6:48 PM CST
Moon 10:58 PM CST (11/5) 12:10 PM CST (11/5)
Length of Visible Light 11h 23m
Length of Day
10h 29m
Waning Gibbous, 62% of the Moon is Illuminated
Nov 5
Waning Gibbous
Nov 6
Last Quarter
Nov 13
New
Nov 20
First Quarter
Nov 28
Full

Hourly Weather History & Observations

Time (CST) Temp. Dew Point Humidity Pressure Visibility Wind Dir Wind Speed Gust Speed Precip Events Conditions
12:52 AM 51.1 °F 43.0 °F 74% 30.05 in 10.0 mi South 5.8 mph - 0.00 in Rain Light Rain
1:52 AM 52.0 °F 43.0 °F 71% 30.02 in 10.0 mi South 3.5 mph - N/A   Clear
2:52 AM 53.1 °F 42.1 °F 66% 30.00 in 10.0 mi South 9.2 mph - N/A   Overcast
3:52 AM 52.0 °F 42.1 °F 69% 30.00 in 10.0 mi SW 4.6 mph - N/A   Overcast
4:52 AM 52.0 °F 41.0 °F 66% 30.00 in 10.0 mi WSW 4.6 mph - N/A   Mostly Cloudy
5:52 AM 52.0 °F 39.9 °F 63% 30.01 in 10.0 mi NW 9.2 mph - N/A   Scattered Clouds
6:52 AM 51.1 °F 41.0 °F 68% 30.03 in 10.0 mi NNW 15.0 mph - N/A   Clear
7:52 AM 51.1 °F 41.0 °F 68% 30.04 in 10.0 mi NNW 13.8 mph - N/A   Clear
8:52 AM 53.1 °F 41.0 °F 64% 30.06 in 10.0 mi NNW 13.8 mph - N/A   Clear
9:52 AM 52.0 °F 41.0 °F 66% 30.08 in 10.0 mi NNW 19.6 mph 27.6 mph N/A   Partly Cloudy
10:17 AM 51.8 °F 41.0 °F 67% 30.08 in 10.0 mi NNW 19.6 mph 25.3 mph N/A   Mostly Cloudy
10:52 AM 53.1 °F 41.0 °F 64% 30.09 in 10.0 mi NNW 20.7 mph 27.6 mph N/A   Mostly Cloudy
11:52 AM 53.1 °F 41.0 °F 64% 30.09 in 10.0 mi NNW 16.1 mph 21.9 mph N/A   Overcast
12:52 PM 53.1 °F 39.9 °F 61% 30.08 in 10.0 mi NW 16.1 mph - N/A   Overcast
1:52 PM 53.1 °F 39.9 °F 61% 30.07 in 10.0 mi NNW 16.1 mph - N/A   Overcast
2:52 PM 54.0 °F 39.0 °F 57% 30.07 in 10.0 mi North 15.0 mph - N/A   Overcast
3:52 PM 53.1 °F 37.9 °F 57% 30.09 in 10.0 mi NNW 13.8 mph - N/A   Overcast
4:52 PM 51.1 °F 39.0 °F 63% 30.09 in 10.0 mi North 15.0 mph - N/A   Overcast
5:48 PM 50.0 °F 39.2 °F 66% 30.12 in 10.0 mi NNW 13.8 mph - N/A   Overcast
5:52 PM 50.0 °F 39.0 °F 66% 30.12 in 10.0 mi NNW 10.4 mph - N/A   Overcast
6:29 PM 48.2 °F 39.2 °F 71% 30.12 in 10.0 mi North 13.8 mph - N/A   Overcast
6:52 PM 48.9 °F 39.0 °F 69% 30.12 in 10.0 mi North 13.8 mph - N/A   Overcast
7:11 PM 48.2 °F 39.2 °F 71% 30.12 in 10.0 mi North 10.4 mph - N/A   Overcast
7:52 PM 48.0 °F 39.0 °F 71% 30.13 in 10.0 mi North 10.4 mph - N/A   Overcast
8:52 PM 48.0 °F 39.0 °F 71% 30.14 in 10.0 mi North 12.7 mph - N/A   Overcast
9:52 PM 48.0 °F 39.0 °F 71% 30.14 in 10.0 mi NNW 9.2 mph - N/A   Overcast
11:52 PM 46.9 °F 39.9 °F 77% 30.13 in 10.0 mi North 5.8 mph - N/A   Overcast